When you browse on this site, cookies collect data to enhance your experience and personalize the content and advertising you see.
Visit our Privacy Policy to learn more. By continuing to use the site, you agree to this use of cookies and data.
  • în România
  • Lista ţărilor
  • Pe 7 zile
  • Temperatura apei
  • Hartă satelitară
  • Meteo pe hartă
  • Widget-uri
  • user-avatar
    Intrare

    Meteo pe oră la Simonovo

    Astăzi, 20 Ianuarie, Duminică

    Timp Temperatura Precipitaţii Vânt Presiune Umiditate
    00:00 -13°C° 0 mm 3 m/s 744 mmHg 94%
    01:00 -12°C° 0 mm 3 m/s 744 mmHg 93%
    02:00 -9°C° 0 mm 3 m/s 744 mmHg 92%
    03:00 -9°C° 0 mm 4 m/s 744 mmHg 90%
    04:00 -9°C° 0 mm 4 m/s 743 mmHg 89%
    05:00 -9°C° 0 mm 4 m/s 743 mmHg 88%
    06:00 -8°C° 0.2 mm 5 m/s 742 mmHg 88%
    07:00 -8°C° 0.2 mm 5 m/s 742 mmHg 89%
    08:00 -9°C° 0.2 mm 6 m/s 741 mmHg 89%
    09:00 -8°C° 0.3 mm 6 m/s 741 mmHg 88%
    10:00 -8°C° 0.3 mm 6 m/s 741 mmHg 87%
    11:00 -6°C° 0.3 mm 6 m/s 740 mmHg 86%
    12:00 -6°C° 0.2 mm 6 m/s 740 mmHg 86%
    13:00 -6°C° 0.2 mm 6 m/s 740 mmHg 86%
    14:00 -5°C° 0.2 mm 6 m/s 739 mmHg 86%
    15:00 -6°C° 0.2 mm 6 m/s 739 mmHg 85%
    16:00 -6°C° 0.2 mm 5 m/s 739 mmHg 84%
    17:00 -7°C° 0.2 mm 5 m/s 739 mmHg 83%
    18:00 -7°C° 0 mm 5 m/s 739 mmHg 84%
    19:00 -8°C° 0 mm 5 m/s 739 mmHg 84%
    20:00 -10°C° 0 mm 5 m/s 739 mmHg 85%
    21:00 -10°C° 0 mm 5 m/s 739 mmHg 85%
    22:00 -10°C° 0 mm 4 m/s 739 mmHg 86%
    23:00 -10°C° 0 mm 4 m/s 740 mmHg 87%

    Mâine, 21 Ianuarie, Luni

    Timp Temperatura Precipitaţii Vânt Presiune Umiditate
    00:00 -10°C° 0 mm 4 m/s 740 mmHg 88%
    01:00 -11°C° 0 mm 4 m/s 740 mmHg 89%
    02:00 -10°C° 0 mm 3 m/s 741 mmHg 90%
    03:00 -13°C° 0 mm 3 m/s 741 mmHg 90%
    04:00 -14°C° 0 mm 3 m/s 741 mmHg 91%
    05:00 -15°C° 0 mm 3 m/s 741 mmHg 91%
    06:00 -15°C° 0 mm 2 m/s 741 mmHg 93%
    07:00 -16°C° 0 mm 2 m/s 741 mmHg 94%
    08:00 -17°C° 0 mm 2 m/s 742 mmHg 96%
    09:00 -17°C° 0 mm 3 m/s 742 mmHg 94%
    10:00 -15°C° 0 mm 3 m/s 742 mmHg 92%
    11:00 -14°C° 0 mm 3 m/s 743 mmHg 90%
    12:00 -14°C° 0 mm 3 m/s 743 mmHg 89%
    13:00 -15°C° 0 mm 3 m/s 743 mmHg 88%
    14:00 -15°C° 0 mm 3 m/s 743 mmHg 87%
    15:00 -16°C° 0 mm 3 m/s 743 mmHg 89%
    16:00 -17°C° 0 mm 3 m/s 744 mmHg 91%
    17:00 -19°C° 0 mm 3 m/s 744 mmHg 94%
    18:00 -19°C° 0 mm 3 m/s 744 mmHg 94%
    19:00 -21°C° 0 mm 3 m/s 745 mmHg 95%
    20:00 -20°C° 0 mm 2 m/s 745 mmHg 96%
    21:00 -21°C° 0 mm 2 m/s 745 mmHg 96%
    22:00 -21°C° 0 mm 2 m/s 746 mmHg 97%
    23:00 -23°C° 0 mm 2 m/s 746 mmHg 97%

    Poimâine, 22 Ianuarie, Marţi

    Timp Temperatura Precipitaţii Vânt Presiune Umiditate
    00:00 -23°C° 0 mm 2 m/s 746 mmHg 97%
    01:00 -23°C° 0 mm 2 m/s 746 mmHg 97%
    02:00 -23°C° 0 mm 2 m/s 747 mmHg 97%
    03:00 -23°C° 0 mm 2 m/s 747 mmHg 97%
    04:00 -24°C° 0 mm 3 m/s 747 mmHg 97%
    05:00 -24°C° 0 mm 3 m/s 747 mmHg 97%
    06:00 -23°C° 0 mm 2 m/s 747 mmHg 97%
    07:00 -23°C° 0 mm 2 m/s 748 mmHg 97%
    08:00 -23°C° 0 mm 2 m/s 748 mmHg 97%
    09:00 -20°C° 0 mm 2 m/s 748 mmHg 96%
    10:00 -19°C° 0 mm 2 m/s 749 mmHg 95%
    11:00 -18°C° 0 mm 2 m/s 749 mmHg 94%
    12:00 -18°C° 0 mm 2 m/s 749 mmHg 94%
    13:00 -17°C° 0 mm 2 m/s 749 mmHg 95%
    14:00 -17°C° 0 mm 2 m/s 749 mmHg 95%
    15:00 -18°C° 0 mm 2 m/s 750 mmHg 96%
    16:00 -19°C° 0 mm 2 m/s 750 mmHg 97%
    17:00 -20°C° 0 mm 2 m/s 750 mmHg 98%
    18:00 -19°C° 0 mm 1 m/s 750 mmHg 98%
    19:00 -19°C° 0 mm 1 m/s 750 mmHg 98%
    20:00 -19°C° 0 mm 1 m/s 750 mmHg 98%
    21:00 -20°C° 0 mm 1 m/s 750 mmHg 98%
    22:00 -23°C° 0 mm 2 m/s 750 mmHg 97%
    23:00 -23°C° 0 mm 2 m/s 750 mmHg 97%

    23 Ianuarie, Miercuri

    Timp Temperatura Precipitaţii Vânt Presiune Umiditate
    00:00 -24°C° 0 mm 2 m/s 750 mmHg 96%
    01:00 -24°C° 0 mm 2 m/s 750 mmHg 95%
    02:00 -24°C° 0 mm 2 m/s 750 mmHg 94%
    03:00 -24°C° 0 mm 2 m/s 750 mmHg 94%
    04:00 -25°C° 0 mm 2 m/s 750 mmHg 95%
    05:00 -25°C° 0 mm 2 m/s 750 mmHg 95%
    06:00 -24°C° 0 mm 2 m/s 750 mmHg 96%
    07:00 -24°C° 0 mm 2 m/s 750 mmHg 97%
    08:00 -24°C° 0 mm 2 m/s 750 mmHg 98%
    09:00 -21°C° 0 mm 2 m/s 750 mmHg 97%
    10:00 -19°C° 0 mm 2 m/s 750 mmHg 96%
    11:00 -18°C° 0 mm 3 m/s 750 mmHg 95%
    12:00 -17°C° 0 mm 3 m/s 750 mmHg 94%
    13:00 -16°C° 0 mm 3 m/s 750 mmHg 93%
    14:00 -15°C° 0 mm 3 m/s 749 mmHg 92%
    15:00 -15°C° 0 mm 3 m/s 749 mmHg 93%
    16:00 -15°C° 0 mm 3 m/s 749 mmHg 93%
    17:00 -15°C° 0 mm 3 m/s 749 mmHg 93%
    18:00 -14°C° 0 mm 3 m/s 749 mmHg 93%
    19:00 -13°C° 0 mm 3 m/s 749 mmHg 93%
    20:00 -12°C° 0 mm 3 m/s 749 mmHg 93%
    21:00 -10°C° 0 mm 3 m/s 749 mmHg 92%
    22:00 -10°C° 0 mm 4 m/s 749 mmHg 91%
    23:00 -9°C° 0 mm 4 m/s 749 mmHg 91%

    24 Ianuarie, Joi

    Timp Temperatura Precipitaţii Vânt Presiune Umiditate
    00:00 -10°C° 0 mm 4 m/s 749 mmHg 91%
    01:00 -11°C° 0 mm 4 m/s 749 mmHg 91%
    02:00 -11°C° 0 mm 4 m/s 749 mmHg 91%
    03:00 -12°C° 0 mm 4 m/s 749 mmHg 92%
    04:00 -14°C° 0 mm 4 m/s 749 mmHg 93%
    05:00 -14°C° 0 mm 3 m/s 750 mmHg 94%
    06:00 -14°C° 0 mm 3 m/s 750 mmHg 94%
    07:00 -15°C° 0 mm 3 m/s 750 mmHg 95%
    08:00 -14°C° 0 mm 2 m/s 750 mmHg 95%
    09:00 -14°C° 0 mm 2 m/s 750 mmHg 93%
    10:00 -14°C° 0 mm 2 m/s 751 mmHg 92%
    11:00 -13°C° 0 mm 2 m/s 751 mmHg 91%
    12:00 -13°C° 0 mm 2 m/s 751 mmHg 91%
    13:00 -11°C° 0 mm 1 m/s 751 mmHg 91%
    14:00 -10°C° 0 mm 1 m/s 751 mmHg 92%
    15:00 -11°C° 0 mm 1 m/s 751 mmHg 92%
    16:00 -13°C° 0 mm 1 m/s 751 mmHg 92%
    17:00 -14°C° 0 mm 1 m/s 751 mmHg 92%
    18:00 -14°C° 0 mm 1 m/s 751 mmHg 91%
    19:00 -15°C° 0 mm 1 m/s 752 mmHg 91%
    20:00 -15°C° 0 mm 1 m/s 752 mmHg 90%
    21:00 -15°C° 0 mm 1 m/s 752 mmHg 91%
    22:00 -16°C° 0 mm 1 m/s 752 mmHg 91%
    23:00 -16°C° 0 mm 1 m/s 752 mmHg 91%

    25 Ianuarie, Vineri

    Timp Temperatura Precipitaţii Vânt Presiune Umiditate
    00:00 -16°C° 0 mm 1 m/s 752 mmHg 92%
    01:00 -16°C° 0 mm 1 m/s 752 mmHg 92%
    02:00 -19°C° 0 mm 2 m/s 752 mmHg 93%
    03:00 -19°C° 0 mm 2 m/s 752 mmHg 93%
    04:00 -18°C° 0 mm 2 m/s 752 mmHg 94%
    05:00 -18°C° 0 mm 2 m/s 752 mmHg 94%
    06:00 -18°C° 0 mm 2 m/s 752 mmHg 94%
    07:00 -18°C° 0 mm 2 m/s 752 mmHg 93%
    08:00 -18°C° 0 mm 2 m/s 752 mmHg 93%
    09:00 -17°C° 0 mm 2 m/s 752 mmHg 92%
    10:00 -18°C° 0 mm 3 m/s 752 mmHg 91%
    11:00 -17°C° 0 mm 3 m/s 752 mmHg 90%
    12:00 -16°C° 0 mm 3 m/s 751 mmHg 90%
    13:00 -16°C° 0 mm 3 m/s 751 mmHg 90%
    14:00 -15°C° 0 mm 3 m/s 750 mmHg 91%
    15:00 -16°C° 0 mm 3 m/s 750 mmHg 92%
    16:00 -16°C° 0 mm 3 m/s 750 mmHg 93%
    17:00 -16°C° 0 mm 3 m/s 750 mmHg 94%
    18:00 -16°C° 0 mm 3 m/s 749 mmHg 93%
    19:00 -16°C° 0 mm 3 m/s 749 mmHg 93%
    20:00 -16°C° 0 mm 3 m/s 749 mmHg 93%
    21:00 -16°C° 0 mm 3 m/s 749 mmHg 94%
    22:00 -16°C° 0 mm 3 m/s 748 mmHg 94%
    23:00 -16°C° 0 mm 3 m/s 748 mmHg 95%
    Arată mai mult